Погода в Кировограде

Погода в Кировограде : погода сейчас, прогноз погоды и архив. Всё, что Вы хотите узнать о погоде в Кировограде!

Хотите узнать прогноз погоды в Кировограде? Тогда Вам сюда: Погода в Кировограде

Поиск расширенной информации на нашем сайте:

Полезная информация:

Другие новости

Новости СМИ2

Главная страница сайта

Новости сайта

03.07.2017

Напоминаем, что на нашем специализированном сайте Метеоцентр.Азия вы можете получить высокодетализированные автоматические прогнозы погоды по пунктам России, СНГ и мира в авиационном формате (включающие направление и скорость ветра, видимость, явления погоды, количество и форму облачности, нижнюю и верхнюю границу облачности).

Рекомендуем:

Погода в Кировограде - сегодня

Время (UTC), дата Ветер
(°,м/с) 
Видим.   Явления Облачность Т
(°С)
Тd
(°С)
f(%) Тe
(°С)
Pmin
(гПа)
dP
(гПа)
Po
(мм)
O2
(г/м3)
Тmin Tmax R s Состояние
почвы
21 18.05.19 080 (В) 10 км    3/0 верхняя 
[Ci fib]
+19.8 +12.4 62 +25  1010.1  0.3  743  277           
00 19.05.19 080 (В) 10 км    3/0 средняя 
[Ac trans]
+17.4 +11.6 69 +21  1010.8  0.5  743  279           
03 19.05.19 080 (В) 20000 м    3/0 средняя 
[Ac trans]
+15.8 +10.5 71 +18  1011.1  0.2  743  281           
06 19.05.19 090 (В) 20000 м    3/0 средняя 
[Ac trans]
+19.9 +11 56 +23  1011.8  0.9  744  277  +15.6  -2.4       
09 19.05.19 090 (В) 20000 м    3/0 верхняя 
[Ci fib]
+23.7 +9.4 40 +24  1012  0.5  744  274           
12 19.05.19 090 (В) 20000 м    3/0 верхняя 
[Ci fib]
+26 +8.6 33 +26  1011.9  744  272           
15 19.05.19 080 (В) 20000 м    3/0 верхняя 
[Ci fib]
+25.9 +10.4 38 +28  1011.7  -0.2  744  272           
18 19.05.19 080 (В) 20000 м    8/0 верхняя 
[Ci fib]
+20.7 +10.2 51 +22  1012.6  0.6  745  277    +26.7       
21 19.05.19 090 (В) 10 км    6/0 верхняя 
[Ci fib]
+18.8 +9.8 56 +20  1013.8  745  279           
00 20.05.19 100 (В) 10 км    8/0 верхняя 
[Ci fib]
+16.9 +8.3 57 +17  1014.1  0.2  746  281           
03 20.05.19 100 (В) 20000 м    10/0 верхняя 
[Ci fib]
+15.1 +9.3 68 +15  1015.1  0.8  746  283           
06 20.05.19 100 (В) 20000 м    8/0 верхняя 
[Ci fib]
+21 +10.6 51 +23  1015.5  0.8  747  277  +14.7         
09 20.05.19 120 (ЮВ) 20000 м    8/4 1000 м верхняя 
[Cu hum|Ci fib]
+25.8 +11 40 +28  1014.8  -0.3  746  273           
12 20.05.19 120 (ЮВ) 20000 м    8/8 1200 м 
[Cu hum]
+27.2 +8.8 31 +27  1014.8  746  272           
15 20.05.19 130 (ЮВ) 20000 м    8/4 1200 м верхняя 
[Cu hum|Ci fib]
+26.1 +9.5 35 +27  1013.7  -1.1  746  273           
18 20.05.19 130 (ЮВ) 20000 м    8/3 1000 м кучево-дожд., верхняя 
[Cb calv|Ci fib]
+22.5 +9.9 45 +24  1013.6  -0.3  745  276    +27.9       
21 20.05.19 140 (ЮВ) 10 км    10/0 средняя, верхняя 
[Ac trans|Ci fib]
+20 +11.5 58 +23  1014.7  0.9  746  278           
00 21.05.19 110 (В) 10 км    10/0 верхняя 
[Ci fib]
+17.8 +12 69 +22  1014  -0.9  745  280           
03 21.05.19 120 (ЮВ) 20000 м    10/0 средняя, верхняя 
[Ac trans|Ci fib]
+15.5 +10.8 74 +17  1013.8  -0.3  745  282           
06 21.05.19 140 (ЮВ) 20000 м    9/9 500 м 
[Sc]
+18.8 +14.7 77 +27  1013.5  -0.1  745  278  +15  +2.1       
09 21.05.19 160 (Ю) 20000 м    9/9 960 м 
[Cu hum]
+22.3 +14.7 62 +31  1012.7  -0.5  745  274           
12 21.05.19 180 (Ю) 20000 м    10/5 1000 м верхняя 
[Cu hum|Ci fib]
+23.6 +13.3 52 +30  1012  -0.6  744  273           
15 21.05.19 190 (Ю) 20000 м    8/4 1000 м верхняя 
[Cu hum|Ci fib]
+24.4 +9.9 40 +26  1010.7  -1.3  743  273           
18 21.05.19 140 (ЮВ) 20000 м    10/0 средняя, верхняя 
[Ac trans|Ci fib]
+21.4 +8.1 42 +21  1011.6  0.7  744  277           
21 21.05.19 240 (ЮЗ) 10 км    3/0 средняя 
[Ac trans]
+18.7 +10.4 58 +21  1012.3  0.5  744  279           
Время (UTC), дата Ветер
(°,м/с) 
Видим.   Явления Облачность Т
(°С)
Тd
(°С)
f(%) Тe
(°С)
Pmin
(гПа)
dP
(гПа)
Po
(мм)
O2
(г/м3)
Тmin Tmax R s Состояние
почвы

Для получения пояснительной информации подведите курсор к названию столбца.

ПОГОДА в Кировограде - архив

Всё, что Вы хотите узнать о погоде в Кировограде - удобно и подробно!

Выберите нужную дату (начиная с 1 января 2018* года) и нажмите кнопку "Найти".
Будут отображены архивные сводки погоды по пункту Кировоград, начиная с указанной даты.


Отображать данные в формате CSV (для использования в таблицах Excel)


Внимание! Наш архив погоды предназначен исключительно для личного некоммерческого использования в познавательных целях. Если Вам необходимы официальные справки о состоянии погоды (для производственных, юридических, коммерческих и т.п. целей), обращайтесь в органы Росгидромета.

*Примечание: данная дата относится к архиву по метеостанциям СССР (Россия, СНГ, Балтия).
Архив по метеостанциям Зарубежной Европы и Азии (кроме Китая) хранится 10 дней, по другим регионам земного шара (Китай, Африка, Америка, Австралия, Океания) - 1 день.

Кировоград - район местоположения метеостанции


Название, широта, долгота, высота метеостанции:
Кировоград 48.5°ш. 32.2°д. 171 м над ур. моря [Украина]

Дополнительная информация

В oтличие oт бoльшинства пoгoдных сайтoв мы публикуем пoдрoбную метеoинфoрмацию в детальнoм прoфессиoнальнoм фoрмате.

Характеристики температуры и влажнoсти вoздуха измеряются на высoте 2 м в тени вдали oт зданий и деревьев.
Скoрoсть ветра измеряется на высoте 10 м (на урoвне рoста челoвека скoрoсть ветра ниже в 1.5-2 раза). Если метеoстанция нахoдится в гoрoде или в лесу, тo скoрoсть ветра занижена на 2-4 м/с пo сравнению с oткрытым местoм. Скoрoсть ветра над акватoриями крупных рек и oзёр, а также на вершинах хoлмoв на 2-5 м/с выше, чем в oбычных услoвиях.
Атмoсфернoе давление в разных тoчках местнoсти мoжет значительнo oтличаться oт давления на метеoстанции, в зависимoсти oт услoвий рельефа (при пoдъёме на 10 м давление пoнижается примернo на 1 мм рт.ст.).